EDW64G LSZH-VCBI

Flight info

Callsign EDW64G
Flight time N/A
Altitude 35000
Route DEGES Z2 TUNUM Z204 GEDSO DCT VEKEN DCT RUDIK DCT MEDUX UM867 KOGAT/N0465F370 DCT ERANA DCT TSL UN130 MES UL609 RDS DCT VANZA DCT LAKTO L560 SERMA L550 KARIK B411 DEESA Y415 TAMRO N318 NADEN/N0458F390 N318 DASVA N685 TOSNA DCT LABRI N318 TOLDA P570 EMURU M300 VASTU P895 BIKOK BIKOK2A
Aircraft A343/H-SDE2E3FGHIJ4J5M1RWXY/LB1D1

Departure

Time 2026-02-22 01:06
Airport Zürich Airport (LSZH)

Arrival

Time N/A
Airport Bandaranaike International Colombo Airport (VCBI)
Time Latitude Longitude Altitude Speed Heading
2026-02-22 00:48 47.46035 8.55833 1401 ft 0 kts
2026-02-22 00:54 47.46028 8.55832 1401 ft 2 kts
2026-02-22 00:54 47.46008 8.55828 1408 ft 3 kts
2026-02-22 00:55 47.45988 8.55825 1404 ft 3 kts
2026-02-22 00:55 47.45970 8.55823 1407 ft 3 kts
2026-02-22 00:55 47.45951 8.55824 1403 ft 3 kts 335°
2026-02-22 00:55 47.45939 8.55839 1413 ft 3 kts 285°
2026-02-22 00:56 47.45937 8.55868 1411 ft 3 kts 267°
2026-02-22 00:56 47.45937 8.55893 1412 ft 1 kts 275°
2026-02-22 00:56 47.45937 8.55896 1411 ft 0 kts 276°
2026-02-22 00:58 47.45937 8.55894 1411 ft 1 kts 276°
2026-02-22 00:58 47.45939 8.55868 1410 ft 4 kts 276°
2026-02-22 00:58 47.45943 8.55810 1412 ft 7 kts 276°
2026-02-22 00:59 47.45949 8.55717 1407 ft 11 kts 276°
2026-02-22 00:59 47.45958 8.55591 1402 ft 14 kts 276°
2026-02-22 00:59 47.45968 8.55444 1405 ft 15 kts 276°
2026-02-22 00:59 47.45980 8.55279 1406 ft 17 kts 275°
2026-02-22 01:00 47.45992 8.55094 1398 ft 18 kts 276°
2026-02-22 01:00 47.46027 8.54934 1410 ft 13 kts 321°
2026-02-22 01:00 47.46111 8.54877 1409 ft 14 kts 335°
2026-02-22 01:00 47.46201 8.54815 1408 ft 14 kts 335°
2026-02-22 01:01 47.46291 8.54752 1407 ft 15 kts 334°
2026-02-22 01:01 47.46393 8.54680 1408 ft 17 kts 334°
2026-02-22 01:01 47.46499 8.54609 1409 ft 17 kts 335°
2026-02-22 01:01 47.46611 8.54533 1407 ft 19 kts 335°
2026-02-22 01:02 47.46727 8.54454 1400 ft 18 kts 335°
2026-02-22 01:02 47.46848 8.54384 1406 ft 19 kts 335°
2026-02-22 01:02 47.46959 8.54308 1411 ft 17 kts 335°
2026-02-22 01:02 47.47064 8.54235 1410 ft 17 kts 334°
2026-02-22 01:03 47.47163 8.54164 1413 ft 15 kts 334°
2026-02-22 01:03 47.47264 8.54095 1411 ft 17 kts 335°
2026-02-22 01:03 47.47377 8.54018 1410 ft 18 kts 335°
2026-02-22 01:03 47.47498 8.53935 1405 ft 20 kts 335°
2026-02-22 01:04 47.47602 8.53825 1411 ft 17 kts 297°
2026-02-22 01:04 47.47583 8.53675 1406 ft 15 kts 242°
2026-02-22 01:04 47.47505 8.53640 1410 ft 14 kts 157°
2026-02-22 01:04 47.47261 8.53803 1406 ft 63 kts 156°
2026-02-22 01:05 47.46938 8.54031 1410 ft 92 kts 154°
2026-02-22 01:05 47.46230 8.54519 1410 ft 131 kts 155°
2026-02-22 01:05 47.45305 8.55160 1419 ft 161 kts 155°
2026-02-22 01:05 47.44299 8.55841 1821 ft 158 kts 155°
2026-02-22 01:06 47.43281 8.56561 2140 ft 167 kts 151°
2026-02-22 01:06 47.42569 8.58525 2573 ft 184 kts 86°
2026-02-22 01:06 47.43177 8.60251 2735 ft 204 kts 42°
2026-02-22 01:06 47.43951 8.61151 2898 ft 215 kts 33°
2026-02-22 01:07 47.45222 8.62435 3265 ft 228 kts 37°
2026-02-22 01:07 47.46172 8.64336 3776 ft 238 kts 73°
2026-02-22 01:07 47.46480 8.66829 4113 ft 257 kts 85°
2026-02-22 01:07 47.46616 8.69535 4572 ft 270 kts 88°
2026-02-22 01:08 47.46686 8.72336 5241 ft 274 kts 89°
2026-02-22 01:08 47.46715 8.75176 5931 ft 278 kts 89°
2026-02-22 01:08 47.46724 8.78064 6606 ft 284 kts 89°
2026-02-22 01:08 47.46713 8.81005 7259 ft 288 kts 91°
2026-02-22 01:09 47.46480 8.83960 7917 ft 292 kts 100°
2026-02-22 01:09 47.46076 8.86879 8564 ft 296 kts 101°
2026-02-22 01:09 47.45633 8.89862 9180 ft 299 kts 102°
2026-02-22 01:09 47.45195 8.92875 9821 ft 302 kts 101°
2026-02-22 01:10 47.44756 8.95926 10434 ft 305 kts 100°
2026-02-22 01:10 47.44310 8.99044 10784 ft 318 kts 100°
2026-02-22 01:10 47.43843 9.02320 11006 ft 333 kts 100°
2026-02-22 01:10 47.43353 9.05744 11228 ft 348 kts 100°
2026-02-22 01:11 47.42835 9.09319 11455 ft 363 kts 100°
2026-02-22 01:11 47.42297 9.13030 11705 ft 376 kts 100°
2026-02-22 01:11 47.41747 9.16847 12113 ft 383 kts 99°
2026-02-22 01:11 47.41502 9.20771 12604 ft 384 kts 84°
2026-02-22 01:12 47.41788 9.24704 13111 ft 386 kts 77°
2026-02-22 01:12 47.42301 9.28603 13623 ft 389 kts 73°
2026-02-22 01:12 47.42928 9.32508 14126 ft 393 kts 72°
2026-02-22 01:12 47.43595 9.36447 14604 ft 397 kts 71°
2026-02-22 01:13 47.44262 9.40424 15131 ft 400 kts 72°
2026-02-22 01:13 47.44911 9.44429 15659 ft 402 kts 72°
2026-02-22 01:13 47.45546 9.48471 16187 ft 406 kts 72°
2026-02-22 01:13 47.46161 9.52499 16726 ft 409 kts 72°
2026-02-22 01:14 47.46773 9.56672 17241 ft 412 kts 75°
2026-02-22 01:14 47.47058 9.60925 17717 ft 421 kts 84°
2026-02-22 01:14 47.47024 9.65218 18293 ft 424 kts 88°
2026-02-22 01:14 47.46861 9.69565 18844 ft 426 kts 89°
2026-02-22 01:15 47.46710 9.72496 19115 ft 428 kts 90°
2026-02-22 01:15 47.46451 9.76895 19547 ft 431 kts 90°
2026-02-22 01:15 47.46176 9.81324 19973 ft 434 kts 90°
2026-02-22 01:15 47.45903 9.85768 20416 ft 436 kts 90°
2026-02-22 01:16 47.45634 9.90244 20848 ft 438 kts 90°
2026-02-22 01:16 47.45375 9.94680 21260 ft 441 kts 90°
2026-02-22 01:16 47.45110 9.99270 21678 ft 443 kts 89°
2026-02-22 01:16 47.44850 10.03813 22084 ft 445 kts 89°
2026-02-22 01:17 47.44591 10.08377 22559 ft 447 kts 89°
2026-02-22 01:17 47.44329 10.12905 22967 ft 449 kts 89°
2026-02-22 01:17 47.43996 10.17569 23342 ft 454 kts 93°
2026-02-22 01:17 47.43474 10.22189 23723 ft 457 kts 95°
2026-02-22 01:18 47.42894 10.26824 24079 ft 460 kts 95°
2026-02-22 01:18 47.42277 10.31477 24388 ft 463 kts 96°
2026-02-22 01:18 47.41644 10.36148 24689 ft 465 kts 95°
2026-02-22 01:18 47.41003 10.40830 25019 ft 466 kts 95°
2026-02-22 01:19 47.40355 10.45536 25353 ft 469 kts 95°
2026-02-22 01:19 47.39708 10.50255 25709 ft 470 kts 95°
2026-02-22 01:19 47.39056 10.54991 26017 ft 472 kts 95°
2026-02-22 01:19 47.38400 10.59738 26312 ft 474 kts 95°
2026-02-22 01:20 47.37745 10.64455 26499 ft 477 kts 95°
2026-02-22 01:20 47.37076 10.69253 26747 ft 478 kts 95°
2026-02-22 01:20 47.36406 10.74051 27081 ft 479 kts 95°
2026-02-22 01:20 47.35730 10.78875 27372 ft 481 kts 95°
2026-02-22 01:21 47.35049 10.83705 27602 ft 482 kts 95°
2026-02-22 01:21 47.34366 10.88555 27933 ft 484 kts 95°
2026-02-22 01:21 47.33680 10.93424 28186 ft 485 kts 95°
2026-02-22 01:21 47.32991 10.98298 28390 ft 487 kts 94°
2026-02-22 01:22 47.32298 11.03190 28605 ft 488 kts 94°
2026-02-22 01:22 47.31599 11.08096 28852 ft 490 kts 95°
2026-02-22 01:22 47.30895 11.13016 29056 ft 492 kts 95°
2026-02-22 01:22 47.30185 11.17946 29233 ft 492 kts 95°
2026-02-22 01:23 47.29470 11.22889 29383 ft 495 kts 95°
2026-02-22 01:23 47.28754 11.27856 29617 ft 496 kts 94°
2026-02-22 01:23 47.28038 11.32813 29928 ft 496 kts 94°
2026-02-22 01:24 47.26591 11.42783 30299 ft 498 kts 95°
2026-02-22 01:24 47.25680 11.47739 30547 ft 507 kts 102°
2026-02-22 01:24 47.24282 11.52544 30791 ft 516 kts 112°
2026-02-22 01:24 47.22423 11.57090 31039 ft 520 kts 117°
2026-02-22 01:25 47.20413 11.61519 31293 ft 521 kts 119°
2026-02-22 01:25 47.18339 11.65873 31623 ft 519 kts 120°
2026-02-22 01:25 47.16243 11.70185 31877 ft 518 kts 120°
2026-02-22 01:25 47.14139 11.74491 32051 ft 518 kts 120°
2026-02-22 01:26 47.12042 11.78793 32269 ft 518 kts 120°
2026-02-22 01:26 47.09949 11.83104 32381 ft 519 kts 120°
2026-02-22 01:26 47.08017 11.87553 32510 ft 514 kts 112°
2026-02-22 01:26 47.06357 11.92164 32802 ft 510 kts 111°
2026-02-22 01:27 47.04760 11.96793 33070 ft 508 kts 110°
2026-02-22 01:27 47.03198 12.01437 33255 ft 507 kts 110°
2026-02-22 01:27 47.01650 12.06086 33415 ft 508 kts 110°
2026-02-22 01:27 47.00104 12.10738 33665 ft 507 kts 110°
2026-02-22 01:28 46.98556 12.15376 33793 ft 507 kts 110°
2026-02-22 01:28 46.97001 12.20020 33927 ft 508 kts 110°
2026-02-22 01:28 46.95440 12.24665 34112 ft 508 kts 110°
2026-02-22 01:28 46.93880 12.29288 34305 ft 507 kts 110°
2026-02-22 01:29 46.92319 12.33900 34426 ft 506 kts 110°
2026-02-22 01:29 46.90781 12.38435 34745 ft 502 kts 110°
2026-02-22 01:29 46.89232 12.42990 35024 ft 499 kts 110°
2026-02-22 01:29 46.87663 12.47601 35148 ft 500 kts 111°
2026-02-22 01:30 46.86132 12.52094 35269 ft 501 kts 111°
2026-02-22 01:30 46.83011 12.61231 35304 ft 503 kts 111°
2026-02-22 01:31 46.79884 12.70345 35295 ft 501 kts 111°
2026-02-22 01:31 46.76759 12.79429 35284 ft 501 kts 110°
2026-02-22 01:32 46.73628 12.88500 35287 ft 501 kts 110°
2026-02-22 01:32 46.70488 12.97561 35289 ft 501 kts 111°
2026-02-22 01:33 46.67343 13.06602 35293 ft 500 kts 111°
2026-02-22 01:33 46.64195 13.15629 35302 ft 500 kts 110°
2026-02-22 01:34 46.61038 13.24646 35296 ft 500 kts 110°
2026-02-22 01:34 46.57876 13.33647 35297 ft 499 kts 110°
2026-02-22 01:35 46.54156 13.42269 35301 ft 507 kts 119°
2026-02-22 01:35 46.50021 13.50516 35302 ft 509 kts 120°
2026-02-22 01:36 46.45780 13.58748 35306 ft 510 kts 121°
2026-02-22 01:36 46.41534 13.66978 35309 ft 509 kts 120°
2026-02-22 01:37 46.37295 13.75205 35296 ft 509 kts 120°
2026-02-22 01:37 46.33056 13.83424 35300 ft 509 kts 120°
2026-02-22 01:38 46.28809 13.91637 35310 ft 510 kts 120°
2026-02-22 01:38 46.24552 13.99844 35311 ft 511 kts 120°
2026-02-22 01:39 46.20284 14.08049 35320 ft 511 kts 120°
2026-02-22 01:39 46.16011 14.16239 35319 ft 511 kts 120°
2026-02-22 01:40 46.11728 14.24422 35324 ft 511 kts 120°
2026-02-22 01:40 46.07464 14.32544 35322 ft 511 kts 120°
2026-02-22 01:41 46.03167 14.40704 35355 ft 512 kts 120°
2026-02-22 01:41 45.98871 14.48837 35326 ft 509 kts 120°
2026-02-22 01:42 45.94591 14.56917 35328 ft 508 kts 120°
2026-02-22 01:42 45.90311 14.64980 35330 ft 508 kts 120°
2026-02-22 01:43 45.86024 14.73033 35375 ft 508 kts 119°
2026-02-22 01:43 45.79583 14.85084 35335 ft 507 kts 120°
2026-02-22 01:44 45.75289 14.93091 35337 ft 507 kts 120°
2026-02-22 01:44 45.70982 15.01096 35331 ft 507 kts 120°
2026-02-22 01:45 45.66674 15.09086 35339 ft 507 kts 119°
2026-02-22 01:45 45.62365 15.17053 35342 ft 507 kts 119°
2026-02-22 01:46 45.58048 15.25013 35344 ft 507 kts 120°
2026-02-22 01:46 45.53723 15.32964 35344 ft 507 kts 120°
2026-02-22 01:47 45.49391 15.40903 35343 ft 507 kts 120°
2026-02-22 01:47 45.45054 15.48830 35350 ft 507 kts 120°
2026-02-22 01:48 45.40711 15.56746 35348 ft 507 kts 120°
2026-02-22 01:48 45.36362 15.64654 35351 ft 507 kts 120°
2026-02-22 01:49 45.32008 15.72544 35349 ft 506 kts 120°
2026-02-22 01:49 45.27659 15.80402 35355 ft 506 kts 120°
2026-02-22 01:50 45.23333 15.88203 35355 ft 506 kts 120°
2026-02-22 01:50 45.18972 15.96046 35357 ft 507 kts 120°
2026-02-22 01:51 45.14603 16.03877 35354 ft 505 kts 120°
2026-02-22 01:51 45.10244 16.11668 35356 ft 505 kts 120°
2026-02-22 01:52 45.05877 16.19454 35355 ft 505 kts 120°
2026-02-22 01:52 45.01507 16.27226 35398 ft 505 kts 120°
2026-02-22 01:53 44.97129 16.34981 35353 ft 504 kts 120°
2026-02-22 01:53 44.92737 16.42703 35355 ft 504 kts 120°
2026-02-22 01:54 44.88343 16.50407 35355 ft 504 kts 120°
2026-02-22 01:54 44.83940 16.58110 35393 ft 505 kts 120°
2026-02-22 01:55 44.79538 16.65790 35348 ft 503 kts 120°
2026-02-22 01:55 44.75881 16.72156 35353 ft 503 kts 120°
2026-02-22 01:56 44.71475 16.79806 35352 ft 503 kts 120°
2026-02-22 01:56 44.67062 16.87449 35375 ft 504 kts 120°
2026-02-22 01:57 44.62650 16.95066 35351 ft 502 kts 120°
2026-02-22 01:57 44.58239 17.02668 35353 ft 502 kts 120°
2026-02-22 01:58 44.53819 17.10262 35351 ft 502 kts 120°
2026-02-22 01:58 44.49396 17.17840 35361 ft 502 kts 120°
2026-02-22 01:59 44.44983 17.25375 35335 ft 500 kts 120°
2026-02-22 01:59 44.40571 17.32890 35338 ft 499 kts 120°
2026-02-22 02:00 44.36165 17.40388 35341 ft 500 kts 120°
2026-02-22 02:00 44.31744 17.47888 35333 ft 500 kts 121°
2026-02-22 02:01 44.27321 17.55366 35326 ft 499 kts 121°
2026-02-22 02:01 44.22897 17.62828 35330 ft 499 kts 121°
2026-02-22 02:02 44.18465 17.70287 35324 ft 499 kts 121°
2026-02-22 02:02 44.14024 17.77742 35334 ft 501 kts 121°
2026-02-22 02:03 44.09568 17.85203 35330 ft 502 kts 122°
2026-02-22 02:03 44.05103 17.92657 35328 ft 502 kts 122°
2026-02-22 02:04 44.00630 18.00103 35326 ft 502 kts 122°
2026-02-22 02:04 43.96162 18.07521 35322 ft 499 kts 122°
2026-02-22 02:05 43.91745 18.14833 35310 ft 498 kts 122°
2026-02-22 02:05 43.87294 18.22188 35319 ft 498 kts 123°
2026-02-22 02:06 43.82834 18.29541 35320 ft 498 kts 123°
2026-02-22 02:06 43.78368 18.36883 35319 ft 498 kts 123°
2026-02-22 02:07 43.73899 18.44212 35319 ft 498 kts 123°
2026-02-22 02:07 43.69423 18.51532 35318 ft 498 kts 123°
2026-02-22 02:08 43.64948 18.58834 35322 ft 497 kts 124°
2026-02-22 02:08 43.60475 18.66107 35311 ft 496 kts 124°
2026-02-22 02:09 43.56001 18.73369 35314 ft 497 kts 124°
2026-02-22 02:09 43.51523 18.80621 35316 ft 497 kts 124°
2026-02-22 02:10 43.47043 18.87857 35309 ft 495 kts 124°
2026-02-22 02:10 43.42571 18.95062 35309 ft 495 kts 125°
2026-02-22 02:11 43.38101 19.02248 35306 ft 495 kts 125°
2026-02-22 02:11 43.33623 19.09427 35303 ft 495 kts 125°
2026-02-22 02:12 43.29136 19.16600 35304 ft 494 kts 126°
2026-02-22 02:12 43.24666 19.23729 35306 ft 492 kts 126°
2026-02-22 02:13 43.20194 19.30846 35310 ft 492 kts 126°
2026-02-22 02:13 43.15717 19.37951 35301 ft 493 kts 126°
2026-02-22 02:14 43.11234 19.45049 35305 ft 493 kts 126°
2026-02-22 02:14 43.06753 19.52130 35290 ft 491 kts 127°
2026-02-22 02:15 43.02284 19.59170 35289 ft 490 kts 127°
2026-02-22 02:15 42.97813 19.66200 35292 ft 490 kts 127°
2026-02-22 02:16 42.93364 19.73178 35278 ft 490 kts 127°
2026-02-22 02:16 42.88885 19.80185 35294 ft 490 kts 127°
2026-02-22 02:17 42.84408 19.87173 35271 ft 489 kts 127°
2026-02-22 02:17 42.79932 19.94139 35267 ft 488 kts 127°
2026-02-22 02:18 42.75455 20.01093 35256 ft 489 kts 128°
2026-02-22 02:18 42.71045 20.08122 35250 ft 488 kts 126°
2026-02-22 02:19 42.66766 20.15270 35264 ft 487 kts 126°
2026-02-22 02:19 42.62486 20.22408 35236 ft 487 kts 126°
2026-02-22 02:20 42.58184 20.29507 35244 ft 487 kts 126°
2026-02-22 02:20 42.53862 20.36593 35238 ft 488 kts 127°
2026-02-22 02:21 42.49533 20.43669 35236 ft 488 kts 127°
2026-02-22 02:21 42.45198 20.50739 35236 ft 487 kts 127°
2026-02-22 02:22 42.40870 20.57781 35233 ft 486 kts 127°
2026-02-22 02:22 42.36543 20.64807 35232 ft 486 kts 127°
2026-02-22 02:23 42.32213 20.71823 35232 ft 486 kts 127°
2026-02-22 02:23 42.27881 20.78825 35235 ft 486 kts 127°
2026-02-22 02:24 42.23534 20.85833 35238 ft 487 kts 127°
2026-02-22 02:24 42.19176 20.92843 35239 ft 488 kts 127°
2026-02-22 02:25 42.14843 20.99794 35242 ft 487 kts 127°
2026-02-22 02:25 42.10296 21.06659 35368 ft 489 kts 132°
2026-02-22 02:26 42.05434 21.13005 35601 ft 490 kts 134°
2026-02-22 02:26 42.02955 21.16156 35776 ft 490 kts 135°
2026-02-22 02:26 42.00474 21.19288 35952 ft 488 kts 135°
2026-02-22 02:27 41.95515 21.25537 36140 ft 490 kts 135°
2026-02-22 02:27 41.90544 21.31806 36330 ft 490 kts 135°
2026-02-22 02:28 41.88058 21.34939 36445 ft 490 kts 135°
2026-02-22 02:28 41.85572 21.38072 36557 ft 490 kts 135°
2026-02-22 02:28 41.80596 21.44332 36741 ft 491 kts 135°
2026-02-22 02:29 41.78103 21.47464 36842 ft 491 kts 136°
2026-02-22 02:29 41.75609 21.50593 36912 ft 492 kts 136°
2026-02-22 02:29 41.70606 21.56859 37066 ft 493 kts 136°
2026-02-22 02:30 41.68103 21.59988 37173 ft 493 kts 136°
2026-02-22 02:30 41.65592 21.63124 37229 ft 493 kts 136°
2026-02-22 02:30 41.60562 21.69394 37231 ft 495 kts 136°
2026-02-22 02:31 41.53019 21.78770 37228 ft 493 kts 136°
2026-02-22 02:32 41.48004 21.84989 37234 ft 492 kts 137°
2026-02-22 02:32 41.42978 21.91206 37228 ft 492 kts 137°
2026-02-22 02:33 41.37953 21.97409 37234 ft 493 kts 137°
2026-02-22 02:33 41.32924 22.03602 37224 ft 493 kts 137°
2026-02-22 02:34 41.27918 22.09753 37221 ft 493 kts 137°
2026-02-22 02:34 41.22880 22.15931 37209 ft 492 kts 137°
2026-02-22 02:35 41.17851 22.22084 37200 ft 491 kts 137°
2026-02-22 02:35 41.12742 22.28110 37184 ft 491 kts 141°
2026-02-22 02:36 41.07403 22.33761 37178 ft 491 kts 142°
2026-02-22 02:36 41.02036 22.39373 37166 ft 491 kts 142°
2026-02-22 02:37 40.96709 22.45022 37164 ft 491 kts 142°
2026-02-22 02:37 40.91392 22.50702 37156 ft 491 kts 142°
2026-02-22 02:38 40.86080 22.56377 37157 ft 491 kts 142°
2026-02-22 02:38 40.80766 22.62040 37154 ft 491 kts 142°
2026-02-22 02:39 40.75448 22.67691 37152 ft 491 kts 142°
2026-02-22 02:39 40.70127 22.73332 37152 ft 491 kts 142°
2026-02-22 02:40 40.64805 22.78963 37155 ft 491 kts 142°
2026-02-22 02:40 40.59483 22.84582 37156 ft 490 kts 142°
2026-02-22 02:41 40.54166 22.90184 37157 ft 490 kts 142°
2026-02-22 02:41 40.48849 22.95774 37157 ft 490 kts 142°
2026-02-22 02:42 40.43790 23.01773 37156 ft 490 kts 136°
2026-02-22 02:42 40.36732 23.11420 37159 ft 491 kts 134°
2026-02-22 02:43 40.32047 23.17925 37152 ft 490 kts 135°
2026-02-22 02:43 40.27365 23.24395 37142 ft 489 kts 135°
2026-02-22 02:44 40.22669 23.30851 37141 ft 489 kts 135°
2026-02-22 02:44 40.18766 23.36202 37140 ft 489 kts 135°
2026-02-22 02:45 40.14061 23.42640 37130 ft 490 kts 135°
2026-02-22 02:45 40.09352 23.49070 37129 ft 489 kts 135°
2026-02-22 02:46 40.04646 23.55482 37123 ft 489 kts 135°
2026-02-22 02:46 39.99935 23.61887 37123 ft 489 kts 136°